Location: El Corozo
(10.5833°N, 66.9667°W)
Time: 22:56:59
(UTC+00:00)

USA 215 - Pass Details

Date: 23 May 2024
Orbit: 1100 x 1107 km, 123.0° (Epoch: 22 April)

Event Time Altitude Azimuth Distance (km) Brightness Sun altitude
Rises 08:33:46 0° 31° (NNE) 3,909 7.1 -21.3°
Reaches altitude 10° 08:36:16 10° 29° (NNE) 2,950 6.3 -20.7°
Maximum altitude 08:42:42 66° 308° (NW) 1,185 3.3 -19.3°
Enters shadow 08:46:19 28° 234° (SW) 1,928 4.0 -18.5°
